Time,TemperatureF,DewpointF,PressureIn,WindDirection,WindDirectionDegrees,WindSpeedMPH,WindSpeedGustMPH,Humidity,HourlyPrecipIn,Conditions,Clouds,dailyrainin,SoftwareType,DateUTC
2013-10-05 00:05:00,63.0,62.0,30.09,SW,221,0.0,0.0,96,0.00,,,0.00,weatherlink.com 1.10,2013-10-05 04:05:00,
2013-10-05 00:20:00,62.8,62.0,30.09,SW,221,0.0,0.0,96,0.00,,,0.00,weatherlink.com 1.10,2013-10-05 04:20:00,
2013-10-05 00:35:00,62.9,62.0,30.09,SW,221,0.0,0.0,97,0.00,,,0.00,weatherlink.com 1.10,2013-10-05 04:35:00,
2013-10-05 00:50:00,63.0,62.0,30.09,SW,221,0.0,0.0,97,0.00,,,0.00,weatherlink.com 1.10,2013-10-05 04:50:00,
2013-10-05 01:05:00,63.0,62.0,30.09,SW,220,0.0,0.0,97,0.00,,,0.00,weatherlink.com 1.10,2013-10-05 05:05:00,
2013-10-05 01:20:00,62.9,62.0,30.09,SW,221,0.0,0.0,97,0.00,,,0.00,weatherlink.com 1.10,2013-10-05 05:20:00,
2013-10-05 01:35:00,62.8,62.0,30.08,SW,221,0.0,0.0,97,0.00,,,0.00,weatherlink.com 1.10,2013-10-05 05:35:00,
2013-10-05 01:50:00,62.9,62.0,30.09,SW,221,0.0,0.0,97,0.00,,,0.00,weatherlink.com 1.10,2013-10-05 05:50:00,
2013-10-05 02:05:00,62.7,62.0,30.09,SW,221,0.0,0.0,97,0.00,,,0.00,weatherlink.com 1.10,2013-10-05 06:05:00,
2013-10-05 02:21:00,62.5,62.0,30.09,SW,221,0.0,0.0,97,0.00,,,0.00,weatherlink.com 1.10,2013-10-05 06:21:00,
2013-10-05 02:35:00,62.5,62.0,30.09,SW,221,0.0,0.0,97,0.00,,,0.00,weatherlink.com 1.10,2013-10-05 06:35:00,
2013-10-05 02:50:00,62.5,62.0,30.09,SW,221,0.0,0.0,97,0.00,,,0.00,weatherlink.com 1.10,2013-10-05 06:50:00,
2013-10-05 03:05:00,62.6,62.0,30.09,SW,221,0.0,0.0,97,0.00,,,0.00,weatherlink.com 1.10,2013-10-05 07:05:00,
2013-10-05 03:20:00,62.7,62.0,30.09,SW,221,0.0,0.0,97,0.00,,,0.00,weatherlink.com 1.10,2013-10-05 07:20:00,
2013-10-05 03:35:00,62.5,62.0,30.08,SW,221,0.0,0.0,97,0.00,,,0.00,weatherlink.com 1.10,2013-10-05 07:35:00,
2013-10-05 03:50:00,62.5,62.0,30.08,SW,221,0.0,0.0,97,0.00,,,0.00,weatherlink.com 1.10,2013-10-05 07:50:00,
2013-10-05 04:05:00,62.6,62.0,30.08,SW,221,0.0,0.0,97,0.00,,,0.00,weatherlink.com 1.10,2013-10-05 08:05:00,
2013-10-05 04:20:00,62.6,62.0,30.08,SW,221,0.0,0.0,97,0.00,,,0.00,weatherlink.com 1.10,2013-10-05 08:20:00,
2013-10-05 04:35:00,62.6,62.0,30.08,SW,220,0.0,0.0,97,0.00,,,0.00,weatherlink.com 1.10,2013-10-05 08:35:00,
2013-10-05 04:50:00,62.4,62.0,30.08,SW,220,0.0,0.0,97,0.00,,,0.00,weatherlink.com 1.10,2013-10-05 08:50:00,
2013-10-05 05:05:00,62.2,61.0,30.08,SW,221,0.0,0.0,97,0.00,,,0.00,weatherlink.com 1.10,2013-10-05 09:05:00,
2013-10-05 05:20:00,62.1,61.0,30.08,SW,221,0.0,0.0,97,0.00,,,0.00,weatherlink.com 1.10,2013-10-05 09:20:00,
2013-10-05 05:35:00,61.9,61.0,30.09,SW,221,0.0,0.0,97,0.00,,,0.00,weatherlink.com 1.10,2013-10-05 09:35:00,
2013-10-05 05:50:00,61.6,61.0,30.09,SW,221,0.0,0.0,97,0.00,,,0.00,weatherlink.com 1.10,2013-10-05 09:50:00,
2013-10-05 06:05:00,61.5,61.0,30.09,SW,221,0.0,0.0,98,0.00,,,0.00,weatherlink.com 1.10,2013-10-05 10:05:00,
2013-10-05 06:20:00,61.5,61.0,30.09,SW,220,0.0,0.0,98,0.00,,,0.00,weatherlink.com 1.10,2013-10-05 10:20:00,
2013-10-05 06:35:00,61.7,61.0,30.09,SW,221,0.0,0.0,98,0.00,,,0.00,weatherlink.com 1.10,2013-10-05 10:35:00,
2013-10-05 06:50:00,61.9,61.0,30.09,SW,221,0.0,0.0,98,0.00,,,0.00,weatherlink.com 1.10,2013-10-05 10:50:00,
2013-10-05 07:05:00,61.9,61.0,30.09,SW,221,0.0,0.0,98,0.00,,,0.00,weatherlink.com 1.10,2013-10-05 11:05:00,
2013-10-05 07:20:00,61.7,61.0,30.09,SW,221,0.0,0.0,98,0.00,,,0.00,weatherlink.com 1.10,2013-10-05 11:20:00,
2013-10-05 07:35:00,61.5,61.0,30.10,SW,221,0.0,0.0,98,0.00,,,0.00,weatherlink.com 1.10,2013-10-05 11:35:00,
2013-10-05 07:50:00,61.4,61.0,30.10,SW,221,0.0,0.0,98,0.00,,,0.00,weatherlink.com 1.10,2013-10-05 11:50:00,
2013-10-05 08:20:00,62.4,62.0,30.10,SW,221,0.0,0.0,98,0.00,,,0.00,weatherlink.com 1.10,2013-10-05 12:20:00,
2013-10-05 08:35:00,63.3,63.0,30.10,SW,221,0.0,0.0,98,0.00,,,0.00,weatherlink.com 1.10,2013-10-05 12:35:00,
2013-10-05 08:50:00,64.3,64.0,30.11,SW,221,0.0,0.0,98,0.00,,,0.00,weatherlink.com 1.10,2013-10-05 12:50:00,
2013-10-05 09:06:00,65.6,65.0,30.11,SW,221,0.0,0.0,98,0.00,,,0.00,weatherlink.com 1.10,2013-10-05 13:06:00,
2013-10-05 09:21:00,66.4,66.0,30.11,SW,221,0.0,0.0,98,0.00,,,0.00,weatherlink.com 1.10,2013-10-05 13:21:00,
2013-10-05 09:36:00,68.3,68.0,30.11,SSW,194,0.0,1.0,98,0.00,,,0.00,weatherlink.com 1.10,2013-10-05 13:36:00,
2013-10-05 09:51:00,69.5,69.0,30.11,SE,144,0.0,4.0,98,0.00,,,0.00,weatherlink.com 1.10,2013-10-05 13:51:00,
2013-10-05 10:06:00,69.8,69.0,30.10,SW,228,2.0,3.0,96,0.00,,,0.00,weatherlink.com 1.10,2013-10-05 14:06:00,
2013-10-05 10:21:00,70.5,69.0,30.10,West,263,2.0,3.0,95,0.00,,,0.00,weatherlink.com 1.10,2013-10-05 14:21:00,
2013-10-05 10:36:00,71.0,69.0,30.10,SW,224,1.0,4.0,92,0.00,,,0.00,weatherlink.com 1.10,2013-10-05 14:36:00,
2013-10-05 10:51:00,71.8,69.0,30.09,SW,226,3.0,3.0,89,0.00,,,0.00,weatherlink.com 1.10,2013-10-05 14:51:00,
2013-10-05 11:06:00,72.1,68.0,30.09,West,280,0.0,3.0,88,0.00,,,0.00,weatherlink.com 1.10,2013-10-05 15:06:00,
2013-10-05 11:21:00,72.3,68.0,30.09,West,260,1.0,5.0,86,0.00,,,0.00,weatherlink.com 1.10,2013-10-05 15:21:00,
2013-10-05 11:36:00,72.5,68.0,30.09,SSW,212,1.0,6.0,85,0.00,,,0.00,weatherlink.com 1.10,2013-10-05 15:36:00,
2013-10-05 11:52:00,72.7,68.0,30.09,SW,228,2.0,3.0,85,0.00,,,0.00,weatherlink.com 1.10,2013-10-05 15:52:00,
2013-10-05 12:07:00,73.8,69.0,30.08,SW,218,2.0,4.0,85,0.00,,,0.00,weatherlink.com 1.10,2013-10-05 16:07:00,
2013-10-05 12:22:00,74.0,69.0,30.09,East,93,0.0,6.0,83,0.00,,,0.00,weatherlink.com 1.10,2013-10-05 16:22:00,
2013-10-05 12:37:00,74.9,69.0,30.08,West,267,3.0,4.0,82,0.00,,,0.00,weatherlink.com 1.10,2013-10-05 16:37:00,
2013-10-05 12:52:00,76.2,70.0,30.07,West,270,0.0,6.0,80,0.00,,,0.00,weatherlink.com 1.10,2013-10-05 16:52:00,
2013-10-05 13:07:00,77.8,70.0,30.06,ESE,110,2.0,6.0,77,0.00,,,0.00,weatherlink.com 1.10,2013-10-05 17:07:00,
2013-10-05 13:22:00,78.6,70.0,30.05,South,179,1.0,5.0,75,0.00,,,0.00,weatherlink.com 1.10,2013-10-05 17:22:00,
2013-10-05 13:37:00,78.8,69.0,30.05,West,281,2.0,4.0,72,0.00,,,0.00,weatherlink.com 1.10,2013-10-05 17:37:00,
2013-10-05 13:52:00,78.8,69.0,30.05,WNW,283,4.0,8.0,73,0.00,,,0.00,weatherlink.com 1.10,2013-10-05 17:52:00,
2013-10-05 14:07:00,79.1,70.0,30.05,WNW,284,2.0,6.0,73,0.00,,,0.00,weatherlink.com 1.10,2013-10-05 18:07:00,
2013-10-05 14:22:00,79.2,69.0,30.04,WNW,290,4.0,5.0,72,0.00,,,0.00,weatherlink.com 1.10,2013-10-05 18:22:00,
2013-10-05 14:37:00,79.3,69.0,30.03,SW,215,5.0,5.0,71,0.00,,,0.00,weatherlink.com 1.10,2013-10-05 18:37:00,
2013-10-05 14:52:00,79.5,70.0,30.03,WSW,252,1.0,5.0,72,0.00,,,0.00,weatherlink.com 1.10,2013-10-05 18:52:00,
2013-10-05 15:07:00,79.1,69.0,30.02,WSW,245,2.0,5.0,71,0.00,,,0.00,weatherlink.com 1.10,2013-10-05 19:07:00,
2013-10-05 15:22:00,78.7,69.0,30.02,WSW,250,0.0,4.0,73,0.00,,,0.00,weatherlink.com 1.10,2013-10-05 19:22:00,
2013-10-05 15:37:00,79.3,70.0,30.03,WSW,257,0.0,5.0,74,0.00,,,0.00,weatherlink.com 1.10,2013-10-05 19:37:00,
2013-10-05 15:52:00,80.1,70.0,30.02,SW,218,1.0,8.0,71,0.00,,,0.00,weatherlink.com 1.10,2013-10-05 19:52:00,
2013-10-05 16:07:00,81.2,70.0,30.02,SSW,212,3.0,4.0,69,0.00,,,0.00,weatherlink.com 1.10,2013-10-05 20:07:00,
2013-10-05 16:22:00,80.6,70.0,30.01,WNW,287,0.0,1.0,70,0.00,,,0.00,weatherlink.com 1.10,2013-10-05 20:22:00,
2013-10-05 16:37:00,79.5,70.0,30.01,SW,233,1.0,2.0,72,0.00,,,0.00,weatherlink.com 1.10,2013-10-05 20:37:00,
2013-10-05 16:52:00,77.7,70.0,30.02,South,179,0.0,1.0,77,0.00,,,0.00,weatherlink.com 1.10,2013-10-05 20:52:00,
2013-10-05 17:07:00,76.6,70.0,30.02,South,179,0.0,0.0,79,0.00,,,0.00,weatherlink.com 1.10,2013-10-05 21:07:00,
2013-10-05 17:22:00,75.7,70.0,30.02,South,179,0.0,0.0,82,0.00,,,0.00,weatherlink.com 1.10,2013-10-05 21:22:00,
2013-10-05 17:37:00,74.4,70.0,30.02,West,270,0.0,2.0,85,0.00,,,0.00,weatherlink.com 1.10,2013-10-05 21:37:00,
2013-10-05 17:52:00,73.2,70.0,30.02,West,270,0.0,0.0,88,0.00,,,0.00,weatherlink.com 1.10,2013-10-05 21:52:00,
2013-10-05 18:07:00,72.3,69.0,30.02,West,266,1.0,4.0,90,0.00,,,0.00,weatherlink.com 1.10,2013-10-05 22:07:00,
2013-10-05 18:22:00,72.0,69.0,30.02,WNW,301,0.0,1.0,89,0.00,,,0.00,weatherlink.com 1.10,2013-10-05 22:22:00,
2013-10-05 18:37:00,71.6,69.0,30.01,WNW,301,0.0,0.0,91,0.00,,,0.00,weatherlink.com 1.10,2013-10-05 22:37:00,
2013-10-05 18:52:00,70.7,68.0,30.00,WNW,302,0.0,1.0,92,0.00,,,0.00,weatherlink.com 1.10,2013-10-05 22:52:00,
2013-10-05 19:07:00,70.1,68.0,30.01,WNW,301,0.0,1.0,93,0.00,,,0.00,weatherlink.com 1.10,2013-10-05 23:07:00,
2013-10-05 19:22:00,69.9,68.0,30.01,WNW,301,0.0,0.0,94,0.00,,,0.00,weatherlink.com 1.10,2013-10-05 23:22:00,
2013-10-05 19:37:00,69.6,68.0,30.01,WNW,301,0.0,0.0,94,0.00,,,0.00,weatherlink.com 1.10,2013-10-05 23:37:00,
2013-10-05 19:52:00,69.4,68.0,30.01,WNW,301,0.0,0.0,95,0.00,,,0.00,weatherlink.com 1.10,2013-10-05 23:52:00,
2013-10-05 20:07:00,69.3,68.0,30.04,WNW,285,0.0,4.0,95,0.00,,,0.00,weatherlink.com 1.10,2013-10-06 00:07:00,
2013-10-05 20:22:00,69.2,67.0,30.05,NW,306,0.0,2.0,93,0.00,,,0.00,weatherlink.com 1.10,2013-10-06 00:22:00,
2013-10-05 20:37:00,69.2,67.0,30.05,North,353,0.0,1.0,92,0.00,,,0.00,weatherlink.com 1.10,2013-10-06 00:37:00,
2013-10-05 20:52:00,68.3,66.0,30.04,North,356,0.0,1.0,93,0.00,,,0.00,weatherlink.com 1.10,2013-10-06 00:52:00,
2013-10-05 21:07:00,67.7,66.0,30.04,North,4,0.0,0.0,94,0.00,,,0.00,weatherlink.com 1.10,2013-10-06 01:07:00,
2013-10-05 21:22:00,67.5,66.0,30.04,SE,146,0.0,0.0,95,0.00,,,0.00,weatherlink.com 1.10,2013-10-06 01:22:00,
2013-10-05 21:37:00,67.3,66.0,30.04,SE,146,0.0,0.0,95,0.00,,,0.00,weatherlink.com 1.10,2013-10-06 01:37:00,
2013-10-05 21:52:00,66.9,66.0,30.04,SSE,147,0.0,0.0,95,0.00,,,0.00,weatherlink.com 1.10,2013-10-06 01:52:00,
2013-10-05 22:07:00,66.6,66.0,30.04,SE,146,0.0,0.0,96,0.00,,,0.00,weatherlink.com 1.10,2013-10-06 02:07:00,
2013-10-05 22:22:00,66.5,65.0,30.04,SSE,147,0.0,0.0,96,0.00,,,0.00,weatherlink.com 1.10,2013-10-06 02:22:00,
2013-10-05 22:37:00,66.2,65.0,30.04,SSE,147,0.0,0.0,96,0.00,,,0.00,weatherlink.com 1.10,2013-10-06 02:37:00,
2013-10-05 22:53:00,65.9,65.0,30.03,SSE,147,0.0,0.0,96,0.00,,,0.00,weatherlink.com 1.10,2013-10-06 02:53:00,
2013-10-05 23:08:00,65.9,65.0,30.03,SSE,147,0.0,0.0,96,0.00,,,0.00,weatherlink.com 1.10,2013-10-06 03:08:00,
2013-10-05 23:23:00,65.5,64.0,30.02,SSE,148,0.0,0.0,96,0.00,,,0.00,weatherlink.com 1.10,2013-10-06 03:23:00,
2013-10-05 23:38:00,65.3,64.0,30.01,SSE,148,0.0,0.0,96,0.00,,,0.00,weatherlink.com 1.10,2013-10-06 03:38:00,
2013-10-05 23:53:00,64.8,64.0,30.01,SSE,148,0.0,0.0,96,0.00,,,0.00,weatherlink.com 1.10,2013-10-06 03:53:00,